Regional Weather Roundup
Issued by NWS Charleston, SC

Home | Current Version | Previous Version | Text Only | Print | Product List | Glossary On
Versions: 1 2 3 4 5 6 7 8 9 10 11 12 13 14 15 16 17 18 19 20 21 22 23 24 25 26 27 28 29 30 31 32 33 34 35 36 37 38 39 40 41 42 43 44 45 46 47 48 49 50
000
ASUS42 KCHS 211112
RWRCHS

Regional Weather Roundup
National Weather Service Charleston SC
700 AM EDT MON MAY 21 2018

NOTE: "fair" indicates few or no clouds below 12,000 feet with no
significant weather and/or obstructions to visibility.

Not all stations are quality controlled. Use data with caution,
especially dewpoint observations.

SCZ027-030-031-034>040-042>050-211200-
...Southeast South Carolina...

CITY           SKY/WX    TMP DP  RH WIND       PRES   REMARKS
N Charleston   MOCLDY    70  69  97 CALM      30.16R
Waterfront Prk   N/A     74  72  93 CALM      29.99F
Mount Pleasant NOT AVBL
Johns Island   FAIR      72  72 100 CALM      30.15S FOG
Pinopolis        N/A     70  70 100 CALM      30.07R
Moncks Corner  CLOUDY    68  68 100 CALM      30.16S FOG
Summerville    PTSUNNY   68  68 100 CALM      30.17R
Beaufort MCAS  MOCLDY    72  72 100 N3        30.15R
Beaufort Arpt  FAIR      72  70  94 NE3       30.14S FOG
Hilton Head Is MOCLDY    72  70  94 CALM      30.15R
Walterboro     FAIR      68  68 100 CALM      30.17R
Allendale      CLOUDY    70  70 100 CALM      30.15S FOG

...Southern Midlands and Pee Dee...

CITY           SKY/WX    TMP DP  RH WIND       PRES   REMARKS
Georgetown     FOG       68  66  94 CALM      30.17R VSB 3/4
Kingstree      FAIR      70  68  94 CALM      30.17R
Orangeburg     CLOUDY    69  68  96 CALM      30.17R FOG
Barnwell       FAIR      68  66  94 CALM      30.17R
Aiken          PTSUNNY   64  64 100 SE5       30.21R
Manning        FAIR      66  66 100 CALM      30.17R
Columbia       MOCLDY    70  70 100 S5        30.15R
Sumter         MOCLDY    70  69  96 SW5       30.14R
Florence       CLOUDY    72  70  93 SW6       30.16R
Myrtle Beach   FAIR      71  70  96 CALM      30.17S
N Myrtle Beach FAIR      71  70  96 SW3       30.15S

$$

GAZ063-065-086>088-099>101-113>116-118-119-134>141-150-211200-
...Southeast Georgia...

CITY           SKY/WX    TMP DP  RH WIND       PRES   REMARKS
Savannah Arpt  MOCLDY    71  70  96 NE6       30.14R
Hunter AAF     FAIR      71  69  95 CALM      30.11R
Fort Stewart   FAIR      70  70 100 MISG        N/A
Statesboro     FOG       68  68 100 CALM      30.15R VSB 1/4
Sylvania       FOG       70  70 100 E3        30.16S VSB 1/4
Claxton        FOG       71  70  99 CALM      30.14R VSB 1

...CSRA, Central and far Southeast Georgia...

CITY           SKY/WX    TMP DP  RH WIND       PRES   REMARKS
Thomson        FOG       66  65  98 CALM      30.22R VSB 1/4
Augusta-Bush   FAIR      64  64 100 CALM      30.16S
Augusta-Daniel CLOUDY    69  65  86 CALM      30.18R
Swainsboro     CLOUDY    68  64  88 NE7       30.16R
Vidalia        CLOUDY    68  64  88 N3        30.15R FOG
Eastman        CLOUDY    69  62  77 NE6       30.16R
Hazlehurst       N/A     72  69  89 NE6       30.12R FOG
Alma           LGT RAIN  72  70  93 E3        30.11R FOG
Waycross       CLOUDY    72  69  90 E5        30.11R FOG
Jesup          FAIR      70  66  88 CALM      30.12R
Baxley         FAIR      70  68  94 CALM      30.11R
Brunswick      FAIR      70  68  94 CALM      30.12R
Saint Simons   FAIR      75  73  93 E8        30.11R

$$

SCZ027-028-034-036>038-045-046-048>050-GAZ119-141-211200-
...Lake and Supplemental Coastal Observations...

STATION/POSITION TIME  TEMP    WIND        PRES    WAVE   SWELL
                       AIR SEA DIR/SP/G            HT/PER HT/PER/DIR
                 (UTC) (F)     (DEG/KT/KT) (MB)    (FT/S) (FT/S/D)
Winyah Bay       0945   71        CALM     1021.0
Lake Murray      NOT AVBL
ACE Basin NERRS  NOT AVBL
Fort Pulaski     1036   75 78  110/  3/  5 1020.7R
Sapelo Island    1000   74     130/  3     1019.0

$$

ANZ835-935-AMZ111-154-330-350-352-354-370-450-454-472-211200-
...C-MAN and Buoy Observations...

STATION/POSITION TIME  TEMP    WIND        PRES    WAVE   SWELL
                       AIR SEA DIR/SP/G            HT/PER HT/PER/DIR
                 (UTC) (F)     (DEG/KT/KT) (MB)    (FT/S) (FT/S/D)
Buoy 41004       1050      74  330/  2/  6 1021.1R   5/ 8   5/140/ 8
Buoy 41008       1050   75 75  120/  6/  8 1019.4R   4/ 9   3/100/ 9
Folly Beach CMAN 1000   73     360/  2/  3 1021.5R
Capers Nearshore 1008   75 76   CALM  /  2 1021.7R
Fripp Nearshore  1008   75 77   70/  4/  8 1020.2R


STATION/POSITION TIME  TEMP    WIND        PRES    WAVE   SWELL
                       AIR SEA DIR/SP/G            HT/PER HT/PER/DIR
                 (UTC) (F)     (DEG/KT/KT) (MB)    (FT/S) (FT/S/D)
5E St. Marys GA  1030      75                N/A     3/ 9
Frying Pan Buoy  1050   74 75  230/ 14/ 21 1021.3R   5/ 9   5/140/ 9
Buoy 41025       1050   74 74  250/ 16/ 19 1020.8R   4/ 9   3/150/ 9
Cape Lookout NC  1000          230/  8/ 11 1020.7R
Buoy 41002       1050      77  160/  8/ 12 1022.5R   4/ 8   3/120/ 8
Buoy 41010       1050   77 79  100/ 16/ 21 1020.2R   6/ 9   3/110/ 9
St Augustine FL  1100   75 75  160/  8/  9 1019.2R


$$



USA.gov is the U.S. government's official web portal to all federal, state and local government web resources and services.